Location: Unspecified
(0.0000°N, 0.0000°E)
Time: 00:30:01
(UTC+00:00)

STRELA 3 - Pass Details

Date: 20 May 2026
Orbit: 1496 x 1510 km, 82.5° (Epoch: 10 June)

Event Time Altitude Azimuth Distance (km) Brightness Sun altitude
Rises 02:53:44 0° 345° (NNW) 4,614 10.4 -42.3°
Reaches altitude 10° 02:56:42 10° 341° (NNW) 3,636 9.8 -41.6°
Enters shadow 02:58:06 16° 337° (NNW) 3,193 9.4 -41.3°
